Weather in Lokachi

Ukraine / Volyn Oblast     50˚44′20″N   24˚38′53″E
temp.,
°C
wind,
m/s
gust,
m/s
humid.,
%
clouds,
%
prec.,
mm/h
press.,
hPa
HPBL,
m
1 december, tue
tue123:00−2˚ssw3578100 0.0 1028129
02:00−3˚ssw237962 0.0 102730
05:00−4˚sse23830 0.0 102753
08:00−4˚se34854 0.0 102790
11:00−1˚se46750 0.0 1028334
14:00se45700 0.0 1027429
17:00−3˚ese37810 0.0 1027143
20:00−4˚ese38860 0.0 1028179
2 december, wed
wed223:00−4˚ese37880 0.0 1029182
02:00−4˚e35870 0.0 1029135
05:00−5˚e36920 0.0 1028150
08:00−5˚e35969 0.0 1028124
11:00−1˚e3590100 0.0 1027263
14:00e358997 0.0 1026357
17:00−1˚e369695 0.0 1025232
20:00−2˚ese379387 0.0 1024314
3 december, thu
thu323:00−1˚sse3787100 0.0 1024496
02:00−1˚se3791100 0.0 1023309
05:00−2˚se489291 0.0 1021231
08:00−2˚se5109458 0.0 1021318
11:00−1˚se698663 0.0 1020509
14:00se6108074 0.0 1019536
17:00−2˚se612872 0.0 1017419
20:00−2˚se7148617 0.0 1017450
4 december, fri
fri423:00−2˚se7138637 0.0 1016434
02:00−1˚se6149147 0.0 1014405
05:00+3˚se7159186 0.0 1012543
08:00+4˚se7169093 0.0 1010709
11:00+6˚se91787100 0.0 1009903
14:00+7˚se81784100 0.0 1008921
17:00+6˚se7168888 0.0 1008561
20:00+6˚sse7168888 0.0 1009526
5 december, sat
sat523:00+6˚se6159097 0.0 1010519
02:00+7˚se6159098 0.0 1010619
05:00+7˚se61491100 0.1 1010586
08:00+8˚se61390100 0.2 1011534
11:00+9˚se61387100 0.0 1012706
14:00+10˚se61282100 0.0 1011747
17:00+8˚se6138776 0.0 1011458
20:00+8˚se6149067 0.0 1011540